NKS255 KIAH-KDTW

Flight info

Callsign NKS255
Flight time 2h 10m
Altitude 39000
Route INDIE8 TPAKK LIT J131 PXV WWODD HANBL3
Aircraft A20N/M-SDE2E3FGHIRWXY/LB1

Departure

Time 2026-05-08 02:14
Airport George Bush Intercontinental Airport (KIAH)

Arrival

Time 2026-05-08 04:25
Airport Detroit Metropolitan Wayne County Airport (KDTW)
Time Latitude Longitude Altitude Speed Heading
2026-05-08 01:33 29.98558 -95.34896 107 ft 0 kts 270°
2026-05-08 01:57 29.98558 -95.34880 107 ft 4 kts 316°
2026-05-08 01:57 29.98540 -95.34869 106 ft 4 kts 338°
2026-05-08 01:57 29.98519 -95.34854 105 ft 4 kts 296°
2026-05-08 01:57 29.98519 -95.34832 104 ft 4 kts 210°
2026-05-08 01:58 29.98543 -95.34826 105 ft 3 kts 180°
2026-05-08 01:58 29.98546 -95.34826 106 ft 1 kts 180°
2026-05-08 02:00 29.98535 -95.34827 105 ft 4 kts 180°
2026-05-08 02:01 29.98491 -95.34826 107 ft 9 kts 180°
2026-05-08 02:01 29.98416 -95.34827 107 ft 13 kts 182°
2026-05-08 02:01 29.98377 -95.34892 107 ft 12 kts 273°
2026-05-08 02:01 29.98380 -95.35006 107 ft 16 kts 270°
2026-05-08 02:02 29.98380 -95.35134 107 ft 8 kts 270°
2026-05-08 02:02 29.98380 -95.35139 107 ft 0 kts 270°
2026-05-08 02:03 29.98388 -95.35162 106 ft 11 kts 304°
2026-05-08 02:03 29.98475 -95.35160 107 ft 15 kts 22°
2026-05-08 02:03 29.98514 -95.35157 105 ft 0 kts 343°
2026-05-08 02:10 29.98518 -95.35158 107 ft 2 kts 341°
2026-05-08 02:11 29.98539 -95.35213 107 ft 12 kts 258°
2026-05-08 02:11 29.98534 -95.35290 105 ft 10 kts 307°
2026-05-08 02:11 29.98602 -95.35338 107 ft 13 kts 331°
2026-05-08 02:11 29.98690 -95.35392 107 ft 16 kts 333°
2026-05-08 02:12 29.98753 -95.35429 107 ft 0 kts 333°
2026-05-08 02:12 29.98755 -95.35430 107 ft 2 kts 333°
2026-05-08 02:12 29.98781 -95.35446 107 ft 7 kts 331°
2026-05-08 02:12 29.98822 -95.35494 107 ft 10 kts 287°
2026-05-08 02:13 29.98795 -95.35572 107 ft 5 kts 239°
2026-05-08 02:13 29.98769 -95.35624 106 ft 10 kts 241°
2026-05-08 02:13 29.98735 -95.35698 107 ft 10 kts 242°
2026-05-08 02:13 29.98701 -95.35738 107 ft 4 kts 195°
2026-05-08 02:14 29.98587 -95.35647 107 ft 35 kts 150°
2026-05-08 02:14 29.98151 -95.35385 105 ft 105 kts 153°
2026-05-08 02:14 29.97327 -95.34889 107 ft 159 kts 152°
2026-05-08 02:14 29.96324 -95.34306 711 ft 157 kts 152°
2026-05-08 02:15 29.95365 -95.33802 1484 ft 147 kts 152°
2026-05-08 02:15 29.94383 -95.33297 2016 ft 166 kts 152°
2026-05-08 02:15 29.93275 -95.32709 2584 ft 184 kts 152°
2026-05-08 02:15 29.92055 -95.32032 3192 ft 204 kts 152°
2026-05-08 02:16 29.90735 -95.31254 3769 ft 225 kts 151°
2026-05-08 02:16 29.89607 -95.29966 4416 ft 241 kts 115°
2026-05-08 02:16 29.89352 -95.28016 5122 ft 256 kts 84°
2026-05-08 02:16 29.89936 -95.25977 5631 ft 282 kts 62°
2026-05-08 02:17 29.91155 -95.24240 6791 ft 276 kts 40°
2026-05-08 02:17 29.92861 -95.23134 7600 ft 291 kts 20°
2026-05-08 02:17 29.94803 -95.22383 8399 ft 300 kts 17°
2026-05-08 02:17 29.96794 -95.21634 9437 ft 298 kts 17°
2026-05-08 02:18 29.98750 -95.20895 10574 ft 293 kts 17°
2026-05-08 02:18 30.00729 -95.20318 11377 ft 301 kts
2026-05-08 02:18 30.02900 -95.20194 11694 ft 323 kts 355°
2026-05-08 02:18 30.05212 -95.20356 12061 ft 343 kts 351°
2026-05-08 02:19 30.07647 -95.20625 12606 ft 356 kts 351°
2026-05-08 02:19 30.10124 -95.20877 13512 ft 359 kts 351°
2026-05-08 02:19 30.12625 -95.21094 14320 ft 363 kts 351°
2026-05-08 02:19 30.15172 -95.21288 15028 ft 369 kts 351°
2026-05-08 02:20 30.17762 -95.21471 15408 ft 375 kts 351°
2026-05-08 02:20 30.20360 -95.21648 15520 ft 374 kts 351°
2026-05-08 02:20 30.22963 -95.21825 15622 ft 375 kts 351°
2026-05-08 02:20 30.25574 -95.22004 15813 ft 378 kts 351°
2026-05-08 02:21 30.28237 -95.21978 16468 ft 387 kts 359°
2026-05-08 02:21 30.30930 -95.21481 17144 ft 401 kts
2026-05-08 02:21 30.33654 -95.20502 17704 ft 415 kts 12°
2026-05-08 02:21 30.36400 -95.19416 18355 ft 420 kts 12°
2026-05-08 02:22 30.39193 -95.18324 18975 ft 424 kts 11°
2026-05-08 02:22 30.41995 -95.17231 19640 ft 426 kts 11°
2026-05-08 02:22 30.44803 -95.16069 20266 ft 433 kts 16°
2026-05-08 02:22 30.47521 -95.14504 20885 ft 442 kts 22°
2026-05-08 02:23 30.50196 -95.12841 21486 ft 446 kts 22°
2026-05-08 02:23 30.52985 -95.11114 22120 ft 449 kts 22°
2026-05-08 02:23 30.55752 -95.09403 22734 ft 452 kts 22°
2026-05-08 02:23 30.58542 -95.07678 23335 ft 456 kts 22°
2026-05-08 02:24 30.61349 -95.05925 23881 ft 460 kts 22°
2026-05-08 02:24 30.64163 -95.04119 24372 ft 464 kts 23°
2026-05-08 02:24 30.66998 -95.02287 24848 ft 468 kts 23°
2026-05-08 02:24 30.69852 -95.00441 25326 ft 471 kts 23°
2026-05-08 02:25 30.72727 -94.98584 25795 ft 475 kts 22°
2026-05-08 02:25 30.75630 -94.96712 26255 ft 479 kts 22°
2026-05-08 02:25 30.78553 -94.94827 26706 ft 482 kts 22°
2026-05-08 02:25 30.81502 -94.92925 27115 ft 486 kts 22°
2026-05-08 02:26 30.84430 -94.91035 27555 ft 489 kts 22°
2026-05-08 02:26 30.87417 -94.89106 28016 ft 492 kts 22°
2026-05-08 02:26 30.90415 -94.87167 28489 ft 495 kts 22°
2026-05-08 02:26 30.93436 -94.85213 28872 ft 499 kts 22°
2026-05-08 02:27 30.96480 -94.83243 29259 ft 502 kts 22°
2026-05-08 02:27 30.99544 -94.81259 29642 ft 506 kts 22°
2026-05-08 02:27 31.02628 -94.79260 30031 ft 509 kts 22°
2026-05-08 02:27 31.05736 -94.77243 30368 ft 512 kts 22°
2026-05-08 02:28 31.08858 -94.75216 30710 ft 515 kts 22°
2026-05-08 02:28 31.11997 -94.73176 31033 ft 518 kts 22°
2026-05-08 02:28 31.15153 -94.71124 31409 ft 520 kts 22°
2026-05-08 02:28 31.18317 -94.69065 31844 ft 521 kts 22°
2026-05-08 02:29 31.21477 -94.67005 32259 ft 521 kts 22°
2026-05-08 02:29 31.24642 -94.64941 32690 ft 521 kts 22°
2026-05-08 02:29 31.27803 -94.62878 33110 ft 521 kts 22°
2026-05-08 02:29 31.30963 -94.60815 33512 ft 520 kts 21°
2026-05-08 02:30 31.34126 -94.58749 33941 ft 520 kts 21°
2026-05-08 02:30 31.37288 -94.56681 34275 ft 520 kts 21°
2026-05-08 02:30 31.40449 -94.54612 34631 ft 520 kts 21°
2026-05-08 02:30 31.43605 -94.52545 34958 ft 519 kts 21°
2026-05-08 02:31 31.46756 -94.50480 35318 ft 520 kts 21°
2026-05-08 02:31 31.49913 -94.48404 35637 ft 520 kts 21°
2026-05-08 02:31 31.53036 -94.46260 35948 ft 521 kts 22°
2026-05-08 02:31 31.56153 -94.44071 36233 ft 522 kts 22°
2026-05-08 02:32 31.59266 -94.41879 36517 ft 522 kts 22°
2026-05-08 02:32 31.62387 -94.39688 36805 ft 522 kts 22°
2026-05-08 02:32 31.65504 -94.37506 37088 ft 522 kts 21°
2026-05-08 02:32 31.68628 -94.35322 37352 ft 522 kts 21°
2026-05-08 02:33 31.71749 -94.33141 37631 ft 522 kts 21°
2026-05-08 02:33 31.74868 -94.30960 37898 ft 523 kts 21°
2026-05-08 02:33 31.77994 -94.28773 38152 ft 523 kts 21°
2026-05-08 02:33 31.81119 -94.26585 38388 ft 523 kts 20°
2026-05-08 02:34 31.84243 -94.24396 38616 ft 523 kts 20°
2026-05-08 02:34 31.87367 -94.22205 38820 ft 523 kts 20°
2026-05-08 02:34 31.90447 -94.20042 38996 ft 523 kts 20°
2026-05-08 02:34 31.93566 -94.17850 39061 ft 520 kts 20°
2026-05-08 02:35 31.99755 -94.13495 39069 ft 518 kts 20°
2026-05-08 02:35 32.05962 -94.09127 39069 ft 520 kts 20°
2026-05-08 02:36 32.12170 -94.04747 39069 ft 520 kts 20°
2026-05-08 02:36 32.18380 -94.00357 39070 ft 520 kts 20°
2026-05-08 02:37 32.24585 -93.95965 39070 ft 520 kts 20°
2026-05-08 02:37 32.29745 -93.92309 39100 ft 521 kts 20°
2026-05-08 02:38 32.35975 -93.87888 39063 ft 522 kts 20°
2026-05-08 02:38 32.42196 -93.83463 39060 ft 521 kts 20°
2026-05-08 02:39 32.48412 -93.79036 39067 ft 521 kts 20°
2026-05-08 02:39 32.54612 -93.74613 39075 ft 520 kts 20°
2026-05-08 02:40 32.60810 -93.70185 39057 ft 521 kts 20°
2026-05-08 02:40 32.67008 -93.65749 39055 ft 520 kts 20°
2026-05-08 02:41 32.73202 -93.61309 39051 ft 520 kts 20°
2026-05-08 02:41 32.79393 -93.56864 39050 ft 520 kts 20°
2026-05-08 02:42 32.85587 -93.52409 39082 ft 520 kts 20°
2026-05-08 02:42 32.91778 -93.47949 39078 ft 520 kts 20°
2026-05-08 02:43 32.97965 -93.43485 39075 ft 520 kts 20°
2026-05-08 02:43 33.04173 -93.39112 39069 ft 517 kts 18°
2026-05-08 02:44 33.10414 -93.34881 39071 ft 516 kts 18°
2026-05-08 02:44 33.16623 -93.30641 39072 ft 511 kts 18°
2026-05-08 02:45 33.22796 -93.26407 39074 ft 513 kts 18°
2026-05-08 02:45 33.28980 -93.22152 39073 ft 513 kts 18°
2026-05-08 02:46 33.35122 -93.17917 39071 ft 513 kts 18°
2026-05-08 02:46 33.41299 -93.13652 39069 ft 513 kts 18°
2026-05-08 02:47 33.47478 -93.09377 39063 ft 513 kts 18°
2026-05-08 02:47 33.53658 -93.05096 39070 ft 513 kts 18°
2026-05-08 02:48 33.59830 -93.00812 39072 ft 512 kts 18°
2026-05-08 02:48 33.65988 -92.96529 39089 ft 510 kts 18°
2026-05-08 02:49 33.72119 -92.92258 39061 ft 509 kts 18°
2026-05-08 02:49 33.78248 -92.87987 39061 ft 509 kts 18°
2026-05-08 02:50 33.84376 -92.83705 39065 ft 510 kts 18°
2026-05-08 02:50 33.90509 -92.79412 39065 ft 510 kts 18°
2026-05-08 02:51 33.96645 -92.75110 39066 ft 511 kts 18°
2026-05-08 02:51 34.02781 -92.70801 39068 ft 511 kts 18°
2026-05-08 02:52 34.08925 -92.66479 39078 ft 510 kts 18°
2026-05-08 02:52 34.15018 -92.62185 39075 ft 510 kts 18°
2026-05-08 02:53 34.21141 -92.57864 39069 ft 511 kts 18°
2026-05-08 02:53 34.27281 -92.53524 39063 ft 511 kts 18°
2026-05-08 02:54 34.33418 -92.49176 39064 ft 511 kts 18°
2026-05-08 02:54 34.39549 -92.44826 39065 ft 511 kts 18°
2026-05-08 02:55 34.48756 -92.38282 39083 ft 512 kts 18°
2026-05-08 02:56 34.54904 -92.33902 39064 ft 513 kts 18°
2026-05-08 02:56 34.61057 -92.29509 39065 ft 513 kts 18°
2026-05-08 02:57 34.67207 -92.25112 39065 ft 513 kts 18°
2026-05-08 02:57 34.73344 -92.20717 39062 ft 515 kts 18°
2026-05-08 02:58 34.79432 -92.15998 39058 ft 528 kts 26°
2026-05-08 02:58 34.84892 -92.09885 39052 ft 546 kts 40°
2026-05-08 02:59 34.89929 -92.02933 39056 ft 548 kts 40°
2026-05-08 02:59 34.94992 -91.95986 39062 ft 549 kts 40°
2026-05-08 03:00 35.00059 -91.89002 39061 ft 551 kts 39°
2026-05-08 03:00 35.05124 -91.81997 39065 ft 552 kts 40°
2026-05-08 03:01 35.10203 -91.74958 39070 ft 553 kts 40°
2026-05-08 03:01 35.15286 -91.67899 39082 ft 553 kts 40°
2026-05-08 03:02 35.20362 -91.60834 39081 ft 552 kts 40°
2026-05-08 03:02 35.25419 -91.53782 39084 ft 553 kts 40°
2026-05-08 03:03 35.30496 -91.46687 39081 ft 553 kts 39°
2026-05-08 03:03 35.35562 -91.39593 39081 ft 553 kts 39°
2026-05-08 03:04 35.40625 -91.32490 39095 ft 553 kts 40°
2026-05-08 03:04 35.45649 -91.25427 39096 ft 554 kts 40°
2026-05-08 03:05 35.50710 -91.18297 39119 ft 555 kts 40°
2026-05-08 03:05 35.55780 -91.11137 39098 ft 555 kts 39°
2026-05-08 03:06 35.60844 -91.03971 39092 ft 555 kts 39°
2026-05-08 03:06 35.65904 -90.96796 39085 ft 555 kts 39°
2026-05-08 03:07 35.70963 -90.89610 39082 ft 555 kts 39°
2026-05-08 03:07 35.76016 -90.82414 39123 ft 556 kts 39°
2026-05-08 03:08 35.81076 -90.75195 39086 ft 557 kts 39°
2026-05-08 03:08 35.86132 -90.67962 39074 ft 557 kts 39°
2026-05-08 03:09 35.91180 -90.60729 39076 ft 556 kts 39°
2026-05-08 03:09 35.96224 -90.53486 39067 ft 556 kts 39°
2026-05-08 03:10 36.01230 -90.46283 39061 ft 556 kts 39°
2026-05-08 03:10 36.06257 -90.39032 39064 ft 556 kts 39°
2026-05-08 03:11 36.11280 -90.31768 39076 ft 555 kts 39°
2026-05-08 03:11 36.16295 -90.24507 39073 ft 555 kts 39°
2026-05-08 03:12 36.21308 -90.17232 39072 ft 555 kts 39°
2026-05-08 03:12 36.26312 -90.09959 39084 ft 555 kts 39°
2026-05-08 03:13 36.31443 -90.02864 39073 ft 551 kts 36°
2026-05-08 03:13 36.36649 -89.95888 39075 ft 551 kts 36°
2026-05-08 03:14 36.41831 -89.88870 39070 ft 551 kts 36°
2026-05-08 03:14 36.47000 -89.81822 39068 ft 551 kts 37°
2026-05-08 03:15 36.52157 -89.74773 39077 ft 552 kts 37°
2026-05-08 03:15 36.57313 -89.67709 39081 ft 551 kts 37°
2026-05-08 03:16 36.62465 -89.60636 39076 ft 551 kts 37°
2026-05-08 03:16 36.67603 -89.53559 39067 ft 551 kts 37°
2026-05-08 03:17 36.72739 -89.46473 39068 ft 551 kts 37°
2026-05-08 03:17 36.77874 -89.39378 39076 ft 551 kts 37°
2026-05-08 03:18 36.83002 -89.32272 39071 ft 551 kts 37°
2026-05-08 03:18 36.88123 -89.25159 39074 ft 550 kts 37°
2026-05-08 03:19 36.93236 -89.18038 39081 ft 550 kts 37°
2026-05-08 03:19 36.98344 -89.10917 39081 ft 550 kts 37°
2026-05-08 03:20 37.03451 -89.03783 39077 ft 550 kts 37°
2026-05-08 03:20 37.08549 -88.96642 39076 ft 550 kts 37°
2026-05-08 03:21 37.13638 -88.89497 39074 ft 549 kts 37°
2026-05-08 03:21 37.18689 -88.82390 39081 ft 549 kts 37°
2026-05-08 03:22 37.23762 -88.75238 39098 ft 548 kts 37°
2026-05-08 03:22 37.28844 -88.68054 39064 ft 546 kts 37°
2026-05-08 03:23 37.33859 -88.60956 39065 ft 547 kts 37°
2026-05-08 03:23 37.38903 -88.53798 39068 ft 547 kts 37°
2026-05-08 03:24 37.43944 -88.46627 39090 ft 547 kts 37°
2026-05-08 03:24 37.48973 -88.39457 39080 ft 545 kts 37°
2026-05-08 03:25 37.53979 -88.32303 39060 ft 543 kts 37°
2026-05-08 03:25 37.58956 -88.25176 39046 ft 540 kts 37°
2026-05-08 03:26 37.63941 -88.18031 39067 ft 545 kts 37°
2026-05-08 03:26 37.68091 -88.12063 39067 ft 544 kts 38°
2026-05-08 03:27 37.73072 -88.04880 39068 ft 540 kts 38°
2026-05-08 03:27 37.78016 -87.97742 39072 ft 540 kts 38°
2026-05-08 03:28 37.82967 -87.90582 39078 ft 541 kts 38°
2026-05-08 03:28 37.87912 -87.83410 39076 ft 541 kts 38°
2026-05-08 03:29 37.93158 -87.76803 39076 ft 521 kts 25°
2026-05-08 03:29 37.96058 -87.74125 39083 ft 510 kts 19°
2026-05-08 03:29 37.99067 -87.71860 39078 ft 498 kts 14°
2026-05-08 03:30 38.08143 -87.65454 39080 ft 498 kts 15°
2026-05-08 03:31 38.20204 -87.56899 39079 ft 496 kts 15°
2026-05-08 03:32 38.29221 -87.50483 39054 ft 494 kts 15°
2026-05-08 03:32 38.35212 -87.46213 39037 ft 493 kts 15°
2026-05-08 03:33 38.41227 -87.41923 39057 ft 498 kts 15°
2026-05-08 03:33 38.47260 -87.37603 39058 ft 497 kts 15°
2026-05-08 03:34 38.53286 -87.33280 39057 ft 497 kts 15°
2026-05-08 03:34 38.59309 -87.28952 39056 ft 496 kts 15°
2026-05-08 03:35 38.65333 -87.24618 39066 ft 497 kts 16°
2026-05-08 03:35 38.71361 -87.20270 39067 ft 497 kts 16°
2026-05-08 03:36 38.77390 -87.15913 39075 ft 498 kts 16°
2026-05-08 03:36 38.83421 -87.11545 39066 ft 497 kts 16°
2026-05-08 03:37 38.89415 -87.07199 39067 ft 499 kts 16°
2026-05-08 03:37 38.95452 -87.02809 39056 ft 498 kts 16°
2026-05-08 03:38 39.01486 -86.98412 39044 ft 498 kts 16°
2026-05-08 03:38 39.07513 -86.94012 39055 ft 498 kts 16°
2026-05-08 03:39 39.13549 -86.89600 39042 ft 499 kts 17°
2026-05-08 03:39 39.19588 -86.85174 39046 ft 499 kts 17°
2026-05-08 03:40 39.25616 -86.80747 39037 ft 499 kts 17°
2026-05-08 03:40 39.31647 -86.76312 39076 ft 498 kts 17°
2026-05-08 03:41 39.37673 -86.71873 39038 ft 499 kts 17°
2026-05-08 03:41 39.43656 -86.67451 39033 ft 498 kts 17°
2026-05-08 03:42 39.49667 -86.63001 39028 ft 497 kts 17°
2026-05-08 03:42 39.55673 -86.58549 39042 ft 497 kts 18°
2026-05-08 03:43 39.61674 -86.54089 39033 ft 497 kts 18°
2026-05-08 03:43 39.67668 -86.49625 39027 ft 496 kts 18°
2026-05-08 03:44 39.73646 -86.45165 39023 ft 495 kts 18°
2026-05-08 03:44 39.79618 -86.40704 39028 ft 495 kts 18°
2026-05-08 03:45 39.85558 -86.36169 39021 ft 499 kts 22°
2026-05-08 03:45 39.91127 -86.30562 39015 ft 510 kts 30°
2026-05-08 03:46 39.96555 -86.24622 39007 ft 509 kts 30°
2026-05-08 03:46 40.01938 -86.18741 39025 ft 507 kts 30°
2026-05-08 03:47 40.07332 -86.12816 39025 ft 507 kts 30°
2026-05-08 03:47 40.12787 -86.07006 39014 ft 505 kts 28°
2026-05-08 03:48 40.18265 -86.01249 39005 ft 505 kts 28°
2026-05-08 03:48 40.23721 -85.95471 39002 ft 504 kts 29°
2026-05-08 03:49 40.29152 -85.89694 38994 ft 502 kts 29°
2026-05-08 03:49 40.34563 -85.83926 38986 ft 501 kts 29°
2026-05-08 03:50 40.40004 -85.78120 39053 ft 506 kts 29°
2026-05-08 03:50 40.45030 -85.72738 39007 ft 503 kts 30°
2026-05-08 03:51 40.50452 -85.66920 39009 ft 504 kts 30°
2026-05-08 03:51 40.55874 -85.61092 39009 ft 503 kts 30°
2026-05-08 03:52 40.61291 -85.55256 39005 ft 503 kts 30°
2026-05-08 03:52 40.66705 -85.49411 39000 ft 503 kts 30°
2026-05-08 03:53 40.72012 -85.43428 38994 ft 507 kts 32°
2026-05-08 03:53 40.77259 -85.37191 38920 ft 508 kts 32°
2026-05-08 03:53 40.79891 -85.34077 38656 ft 508 kts 32°
2026-05-08 03:54 40.82530 -85.30966 38103 ft 509 kts 32°
2026-05-08 03:54 40.85171 -85.27855 37429 ft 508 kts 32°
2026-05-08 03:54 40.87737 -85.24600 36568 ft 519 kts 39°
2026-05-08 03:54 40.90116 -85.20966 35702 ft 524 kts 40°
2026-05-08 03:55 40.92492 -85.17310 34877 ft 525 kts 40°
2026-05-08 03:55 40.94872 -85.13655 34100 ft 524 kts 40°
2026-05-08 03:55 40.97246 -85.10005 33182 ft 523 kts 40°
2026-05-08 03:55 40.99620 -85.06355 32243 ft 523 kts 40°
2026-05-08 03:56 41.01986 -85.02710 31341 ft 523 kts 40°
2026-05-08 03:56 41.04355 -84.99056 30484 ft 523 kts 40°
2026-05-08 03:56 41.06715 -84.95409 29750 ft 518 kts 40°
2026-05-08 03:56 41.09031 -84.91817 29217 ft 507 kts 40°
2026-05-08 03:57 41.11304 -84.88290 28594 ft 499 kts 40°
2026-05-08 03:57 41.13541 -84.84819 27974 ft 491 kts 40°
2026-05-08 03:57 41.15745 -84.81399 27339 ft 484 kts 40°
2026-05-08 03:57 41.18010 -84.78179 26730 ft 472 kts 36°
2026-05-08 03:58 41.20289 -84.75083 26125 ft 466 kts 35°
2026-05-08 03:58 41.22537 -84.72022 25526 ft 460 kts 35°
2026-05-08 03:58 41.24764 -84.68989 24871 ft 457 kts 36°
2026-05-08 03:58 41.26966 -84.65984 24317 ft 451 kts 37°
2026-05-08 03:59 41.29149 -84.63004 23700 ft 447 kts 37°
2026-05-08 03:59 41.31292 -84.60070 23302 ft 435 kts 37°
2026-05-08 03:59 41.33360 -84.57224 22976 ft 422 kts 37°
2026-05-08 03:59 41.35387 -84.54443 22566 ft 413 kts 37°
2026-05-08 04:00 41.37372 -84.51726 22241 ft 409 kts 37°
2026-05-08 04:00 41.39360 -84.49013 21915 ft 409 kts 37°
2026-05-08 04:00 41.41342 -84.46300 21585 ft 407 kts 37°
2026-05-08 04:00 41.43326 -84.43641 21277 ft 400 kts 34°
2026-05-08 04:01 41.45480 -84.41373 20932 ft 389 kts 25°
2026-05-08 04:01 41.47753 -84.39473 20627 ft 385 kts 23°
2026-05-08 04:01 41.50022 -84.37587 20313 ft 384 kts 23°
2026-05-08 04:01 41.52280 -84.35696 20006 ft 382 kts 24°
2026-05-08 04:02 41.54528 -84.33809 19700 ft 381 kts 24°
2026-05-08 04:02 41.56764 -84.31931 19394 ft 379 kts 24°
2026-05-08 04:02 41.58993 -84.30057 19092 ft 377 kts 24°
2026-05-08 04:02 41.61211 -84.28193 18794 ft 376 kts 24°
2026-05-08 04:03 41.63420 -84.26335 18510 ft 375 kts 24°
2026-05-08 04:03 41.67820 -84.22631 17891 ft 371 kts 24°
2026-05-08 04:03 41.70001 -84.20791 17602 ft 370 kts 24°
2026-05-08 04:04 41.72172 -84.18949 17306 ft 370 kts 26°
2026-05-08 04:04 41.74209 -84.16807 17010 ft 375 kts 36°
2026-05-08 04:04 41.76025 -84.14281 16692 ft 377 kts 41°
2026-05-08 04:04 41.77799 -84.11708 16383 ft 375 kts 40°
2026-05-08 04:05 41.79571 -84.09155 16100 ft 373 kts 40°
2026-05-08 04:05 41.81332 -84.06620 15802 ft 371 kts 41°
2026-05-08 04:05 41.83081 -84.04101 15509 ft 369 kts 41°
2026-05-08 04:05 41.84824 -84.01588 15207 ft 367 kts 41°
2026-05-08 04:06 41.86558 -83.99083 14912 ft 364 kts 41°
2026-05-08 04:06 41.88277 -83.96598 14620 ft 362 kts 41°
2026-05-08 04:06 41.89966 -83.94154 14338 ft 361 kts 41°
2026-05-08 04:06 41.91664 -83.91694 14060 ft 359 kts 41°
2026-05-08 04:07 41.93360 -83.89236 13758 ft 359 kts 41°
2026-05-08 04:07 41.95054 -83.86778 13451 ft 358 kts 42°
2026-05-08 04:07 41.96732 -83.84341 13166 ft 355 kts 42°
2026-05-08 04:07 41.98410 -83.81915 12886 ft 354 kts 41°
2026-05-08 04:08 42.00089 -83.79513 12605 ft 352 kts 41°
2026-05-08 04:08 42.01762 -83.77122 12326 ft 350 kts 41°
2026-05-08 04:08 42.03427 -83.74738 12088 ft 348 kts 41°
2026-05-08 04:08 42.05050 -83.72406 11978 ft 335 kts 41°
2026-05-08 04:09 42.06608 -83.70160 11840 ft 322 kts 41°
2026-05-08 04:09 42.08119 -83.67983 11529 ft 315 kts 41°
2026-05-08 04:09 42.09441 -83.65485 11251 ft 349 kts 60°
2026-05-08 04:09 42.10235 -83.62243 11234 ft 381 kts 75°
2026-05-08 04:10 42.10834 -83.58649 11204 ft 404 kts 75°
2026-05-08 04:10 42.11447 -83.54871 11176 ft 423 kts 76°
2026-05-08 04:10 42.12073 -83.51003 11066 ft 416 kts 76°
2026-05-08 04:10 42.12674 -83.47288 10844 ft 395 kts 76°
2026-05-08 04:11 42.13243 -83.43777 10602 ft 372 kts 76°
2026-05-08 04:11 42.13779 -83.40475 10359 ft 350 kts 76°
2026-05-08 04:11 42.14285 -83.37369 10152 ft 329 kts 76°
2026-05-08 04:11 42.14763 -83.34440 9850 ft 314 kts 76°
2026-05-08 04:12 42.15218 -83.31646 9548 ft 298 kts 76°
2026-05-08 04:12 42.15656 -83.28962 9225 ft 285 kts 76°
2026-05-08 04:12 42.16071 -83.26413 8904 ft 274 kts 76°
2026-05-08 04:12 42.16685 -83.24035 8519 ft 263 kts 52°
2026-05-08 04:13 42.18004 -83.22319 8429 ft 265 kts 28°
2026-05-08 04:13 42.19555 -83.21047 8298 ft 259 kts 24°
2026-05-08 04:13 42.21128 -83.19882 8165 ft 256 kts 24°
2026-05-08 04:13 42.22674 -83.18741 7852 ft 253 kts 24°
2026-05-08 04:14 42.24213 -83.17590 7413 ft 252 kts 24°
2026-05-08 04:14 42.25750 -83.16455 6992 ft 251 kts 25°
2026-05-08 04:14 42.27279 -83.15325 6604 ft 249 kts 25°
2026-05-08 04:14 42.28771 -83.14214 6310 ft 242 kts 25°
2026-05-08 04:15 42.30231 -83.13122 6045 ft 239 kts 26°
2026-05-08 04:15 42.31704 -83.12019 5827 ft 242 kts 26°
2026-05-08 04:15 42.33166 -83.10922 5618 ft 240 kts 26°
2026-05-08 04:15 42.34621 -83.09829 5411 ft 239 kts 26°
2026-05-08 04:16 42.36072 -83.08738 5205 ft 238 kts 26°
2026-05-08 04:16 42.37513 -83.07653 5064 ft 236 kts 26°
2026-05-08 04:16 42.38951 -83.06571 5011 ft 236 kts 26°
2026-05-08 04:16 42.40348 -83.05516 4984 ft 222 kts 26°
2026-05-08 04:17 42.41691 -83.04512 4988 ft 223 kts 22°
2026-05-08 04:17 42.43146 -83.04151 4983 ft 205 kts 347°
2026-05-08 04:17 42.44374 -83.04834 4985 ft 184 kts 316°
2026-05-08 04:17 42.45156 -83.06178 4984 ft 181 kts 290°
2026-05-08 04:18 42.45431 -83.07820 4986 ft 179 kts 276°
2026-05-08 04:18 42.45622 -83.09485 4986 ft 180 kts 277°
2026-05-08 04:18 42.45825 -83.11130 4986 ft 179 kts 278°
2026-05-08 04:18 42.45795 -83.12789 4994 ft 178 kts 248°
2026-05-08 04:19 42.45167 -83.14245 4985 ft 180 kts 237°
2026-05-08 04:19 42.44467 -83.15649 4987 ft 180 kts 237°
2026-05-08 04:19 42.43700 -83.16991 4987 ft 181 kts 225°
2026-05-08 04:19 42.42695 -83.18034 4908 ft 184 kts 214°
2026-05-08 04:20 42.41588 -83.18878 4754 ft 181 kts 210°
2026-05-08 04:20 42.40468 -83.19696 4667 ft 184 kts 212°
2026-05-08 04:20 42.39352 -83.20528 4498 ft 183 kts 212°
2026-05-08 04:20 42.38242 -83.21351 4295 ft 181 kts 212°
2026-05-08 04:21 42.37135 -83.22174 4073 ft 181 kts 212°
2026-05-08 04:21 42.36035 -83.22991 3840 ft 180 kts 212°
2026-05-08 04:21 42.34938 -83.23805 3611 ft 179 kts 212°
2026-05-08 04:21 42.33777 -83.24672 3391 ft 216 kts 211°
2026-05-08 04:22 42.32401 -83.25687 3068 ft 225 kts 211°
2026-05-08 04:22 42.31050 -83.26689 2755 ft 219 kts 211°
2026-05-08 04:22 42.29771 -83.27635 2458 ft 200 kts 211°
2026-05-08 04:22 42.28600 -83.28502 2184 ft 184 kts 211°
2026-05-08 04:23 42.27526 -83.29297 1980 ft 166 kts 211°
2026-05-08 04:23 42.26576 -83.29999 1757 ft 144 kts 212°
2026-05-08 04:23 42.25754 -83.30610 1541 ft 130 kts 211°
2026-05-08 04:23 42.24961 -83.31200 1367 ft 129 kts 211°
2026-05-08 04:24 42.24169 -83.31794 1179 ft 130 kts 209°
2026-05-08 04:24 42.23376 -83.32362 964 ft 128 kts 208°
2026-05-08 04:24 42.22599 -83.32948 797 ft 128 kts 208°
2026-05-08 04:24 42.21825 -83.33514 672 ft 126 kts 208°
2026-05-08 04:25 42.21124 -83.34029 649 ft 86 kts 208°
2026-05-08 04:25 42.20811 -83.34260 645 ft 33 kts 209°
2026-05-08 04:25 42.20659 -83.34402 647 ft 23 kts 224°
2026-05-08 04:25 42.20572 -83.34556 647 ft 14 kts 242°
2026-05-08 04:26 42.20561 -83.34598 647 ft 3 kts 264°
2026-05-08 04:26 42.20585 -83.34650 648 ft 10 kts 334°
2026-05-08 04:26 42.20670 -83.34617 648 ft 16 kts 30°
2026-05-08 04:26 42.20778 -83.34535 647 ft 20 kts 29°
2026-05-08 04:27 42.20909 -83.34437 647 ft 23 kts 27°
2026-05-08 04:27 42.21054 -83.34336 648 ft 22 kts 28°
2026-05-08 04:27 42.21201 -83.34226 647 ft 26 kts 28°
2026-05-08 04:27 42.21368 -83.34106 647 ft 28 kts 29°
2026-05-08 04:28 42.21522 -83.33992 647 ft 19 kts 28°
2026-05-08 04:28 42.21650 -83.33897 645 ft 20 kts 30°
2026-05-08 04:28 42.21761 -83.33811 643 ft 14 kts 30°
2026-05-08 04:28 42.21832 -83.33790 645 ft 11 kts 336°
2026-05-08 04:29 42.21852 -83.33887 648 ft 13 kts 263°
2026-05-08 04:29 42.21845 -83.34026 646 ft 16 kts 270°
2026-05-08 04:29 42.21845 -83.34196 646 ft 20 kts 269°
2026-05-08 04:29 42.21837 -83.34378 648 ft 19 kts 266°
2026-05-08 04:30 42.21833 -83.34550 647 ft 20 kts 270°
2026-05-08 04:30 42.21834 -83.34744 646 ft 22 kts 270°
2026-05-08 04:30 42.21831 -83.34959 646 ft 24 kts 266°
2026-05-08 04:30 42.21826 -83.35149 646 ft 20 kts 269°
2026-05-08 04:31 42.21825 -83.35271 645 ft 10 kts 268°
2026-05-08 04:31 42.21875 -83.35337 645 ft 13 kts 355°
2026-05-08 04:31 42.21971 -83.35290 646 ft 17 kts 30°
2026-05-08 04:31 42.22058 -83.35225 646 ft 10 kts 27°
2026-05-08 04:32 42.22131 -83.35251 646 ft 14 kts 323°
2026-05-08 04:32 42.22219 -83.35325 647 ft 15 kts 329°
2026-05-08 04:32 42.22314 -83.35325 646 ft 14 kts 38°
2026-05-08 04:32 42.22382 -83.35235 646 ft 15 kts 54°
2026-05-08 04:33 42.22427 -83.35149 646 ft 12 kts 52°
2026-05-08 04:33 42.22465 -83.35099 646 ft 3 kts 39°
2026-05-08 04:33 42.22474 -83.35059 646 ft 6 kts 103°
2026-05-08 04:33 42.22459 -83.35035 646 ft 0 kts 132°
2026-05-08 04:34 42.22457 -83.35030 646 ft 1 kts 126°
2026-05-08 04:34 42.22452 -83.35019 646 ft 1 kts 120°
2026-05-08 04:34 42.22450 -83.35013 646 ft 1 kts 119°
2026-05-08 04:34 42.22449 -83.35011 646 ft 0 kts 119°